User: anonymous
Location: Unspecified
(0.0000°N, 0.0000°E)
Time: 08:15:54
(UTC+02:00)
Language:

GPS 2-05 Rocket1 - Orbit

View from above orbital plane
View from above orbital plane
View from above satellite
View from above satellite

Ground track
Ground track

The orbit data is extracted from the following two-line orbital elements,

1 20362U 89097B   14207.22891354  .00005833  00000-0  20700-3 0  4776
2 20362 035.6228 159.0369 0108000 095.0045 037.8869 15.23111028336845
Epoch (UTC): 26 July 2014 05:29:38
Eccentricity: 0.0108000
inclination: 35.6228°
perigee height: 422 km
apogee height: 571 km
right ascension of ascending node: 159.0369°
argument of perigee: 95.0045°
revolutions per day: 15.23111028
mean anomaly at epoch: 37.8869°
orbit number at epoch: 33684

The dashed part of the orbit path shows where the satellite is in the earth's shadow,  

DLR